EN

Hourly Weather La Celia

Today, 6 August, Friday

Time Temperature Precipitation Wind Pressure Humidity
00:00 +15°C° 0.8 mm 0 mps 626 mmHg 98%
01:00 +15°C° 0.8 mm 0 mps 625 mmHg 98%
02:00 +15°C° 0.5 mm 0 mps 625 mmHg 98%
03:00 +14°C° 0.5 mm 0 mps 625 mmHg 97%
04:00 +14°C° 0.5 mm 0 mps 625 mmHg 97%
05:00 +14°C° 0.3 mm 0 mps 625 mmHg 96%
06:00 +15°C° 0.3 mm 0 mps 626 mmHg 96%
07:00 +15°C° 0.3 mm 0 mps 626 mmHg 95%
08:00 +17°C° 0.1 mm 0 mps 627 mmHg 88%
09:00 +18°C° 0.1 mm 0 mps 627 mmHg 81%
10:00 +22°C° 0.1 mm 1 mps 627 mmHg 75%
11:00 +23°C° 0.4 mm 1 mps 627 mmHg 72%
12:00 +24°C° 0.4 mm 1 mps 627 mmHg 69%
13:00 +24°C° 0.4 mm 1 mps 627 mmHg 66%
14:00 +23°C° 0.9 mm 1 mps 626 mmHg 73%
15:00 +22°C° 0.9 mm 1 mps 625 mmHg 79%
16:00 +21°C° 0.9 mm 1 mps 625 mmHg 86%
17:00 +20°C° 1.3 mm 1 mps 625 mmHg 90%
18:00 +19°C° 1.3 mm 1 mps 625 mmHg 93%
19:00 +18°C° 1.3 mm 1 mps 625 mmHg 97%
20:00 +18°C° 1 mm 1 mps 625 mmHg 98%
21:00 +15°C° 1 mm 0 mps 626 mmHg 98%
22:00 +15°C° 1 mm 0 mps 626 mmHg 98%
23:00 +15°C° 0.3 mm 0 mps 626 mmHg 98%

Tomorrow, 7 August, Saturday

Time Temperature Precipitation Wind Pressure Humidity
00:00 +15°C° 0.3 mm 0 mps 626 mmHg 98%
01:00 +15°C° 0.3 mm 0 mps 625 mmHg 98%
02:00 +15°C° 0.3 mm 0 mps 625 mmHg 98%
03:00 +14°C° 0.3 mm 0 mps 625 mmHg 98%
04:00 +14°C° 0.3 mm 0 mps 625 mmHg 98%
05:00 +14°C° 0.1 mm 0 mps 625 mmHg 97%
06:00 +15°C° 0.1 mm 0 mps 626 mmHg 97%
07:00 +15°C° 0.1 mm 0 mps 626 mmHg 96%
08:00 +17°C° 0.1 mm 0 mps 626 mmHg 89%
09:00 +18°C° 0.1 mm 0 mps 627 mmHg 81%
10:00 +22°C° 0.1 mm 1 mps 628 mmHg 74%
11:00 +23°C° 0.4 mm 1 mps 627 mmHg 71%
12:00 +24°C° 0.4 mm 1 mps 627 mmHg 67%
13:00 +25°C° 0.4 mm 1 mps 627 mmHg 64%
14:00 +24°C° 0.7 mm 1 mps 626 mmHg 68%
15:00 +24°C° 0.7 mm 1 mps 625 mmHg 72%
16:00 +23°C° 0.7 mm 1 mps 625 mmHg 77%
17:00 +21°C° 0.9 mm 1 mps 625 mmHg 83%
18:00 +20°C° 0.9 mm 1 mps 625 mmHg 90%
19:00 +18°C° 0.9 mm 1 mps 625 mmHg 97%
20:00 +18°C° 0.9 mm 1 mps 625 mmHg 97%
21:00 +18°C° 0.9 mm 1 mps 626 mmHg 98%
22:00 +16°C° 0.9 mm 1 mps 626 mmHg 98%
23:00 +15°C° 0.5 mm 0 mps 626 mmHg 98%

Day after tomorrow, 8 August, Sunday

Time Temperature Precipitation Wind Pressure Humidity
00:00 +15°C° 0.5 mm 0 mps 626 mmHg 98%
01:00 +15°C° 0.5 mm 0 mps 625 mmHg 98%
02:00 +15°C° 0.4 mm 0 mps 625 mmHg 98%
03:00 +15°C° 0.4 mm 0 mps 625 mmHg 98%
04:00 +15°C° 0.4 mm 0 mps 625 mmHg 98%
05:00 +15°C° 0.1 mm 0 mps 625 mmHg 97%
06:00 +15°C° 0.1 mm 0 mps 625 mmHg 97%
07:00 +15°C° 0.1 mm 0 mps 626 mmHg 96%
08:00 +17°C° 0.2 mm 0 mps 626 mmHg 89%
09:00 +18°C° 0.2 mm 0 mps 627 mmHg 83%
10:00 +20°C° 0.2 mm 0 mps 627 mmHg 76%
11:00 +23°C° 0.7 mm 1 mps 627 mmHg 74%
12:00 +23°C° 0.7 mm 1 mps 627 mmHg 71%
13:00 +24°C° 0.7 mm 1 mps 626 mmHg 69%
14:00 +23°C° 1.3 mm 1 mps 626 mmHg 73%
15:00 +23°C° 1.3 mm 1 mps 625 mmHg 77%
16:00 +22°C° 1.3 mm 1 mps 625 mmHg 81%
17:00 +20°C° 1.6 mm 1 mps 625 mmHg 87%
18:00 +19°C° 1.6 mm 1 mps 625 mmHg 92%
19:00 +18°C° 1.6 mm 1 mps 625 mmHg 98%
20:00 +18°C° 1.6 mm 1 mps 625 mmHg 98%
21:00 +15°C° 1.6 mm 0 mps 626 mmHg 98%
22:00 +15°C° 1.6 mm 0 mps 626 mmHg 98%
23:00 +15°C° 0.9 mm 0 mps 626 mmHg 98%

9 August, Monday

Time Temperature Precipitation Wind Pressure Humidity
00:00 +15°C° 0.9 mm 0 mps 626 mmHg 99%
01:00 +15°C° 0.9 mm 0 mps 625 mmHg 99%
02:00 +15°C° 1 mm 0 mps 625 mmHg 99%
03:00 +15°C° 1 mm 0 mps 625 mmHg 99%
04:00 +15°C° 1 mm 0 mps 625 mmHg 99%
05:00 +15°C° 0.2 mm 0 mps 625 mmHg 98%
06:00 +15°C° 0.2 mm 0 mps 625 mmHg 97%
07:00 +16°C° 0.2 mm 1 mps 625 mmHg 97%
08:00 +19°C° 0.2 mm 1 mps 626 mmHg 90%
09:00 +20°C° 0.2 mm 1 mps 627 mmHg 84%
10:00 +22°C° 0.2 mm 1 mps 627 mmHg 78%
11:00 +22°C° 0.7 mm 1 mps 627 mmHg 76%
12:00 +23°C° 0.7 mm 1 mps 626 mmHg 74%
13:00 +24°C° 0.7 mm 1 mps 626 mmHg 72%
14:00 +23°C° 0.7 mm 1 mps 625 mmHg 74%
15:00 +23°C° 0.7 mm 1 mps 625 mmHg 77%
16:00 +22°C° 0.7 mm 1 mps 624 mmHg 79%
17:00 +21°C° 0.8 mm 1 mps 624 mmHg 85%
18:00 +19°C° 0.8 mm 1 mps 624 mmHg 91%
19:00 +18°C° 0.8 mm 1 mps 624 mmHg 96%
20:00 +18°C° 0.7 mm 1 mps 625 mmHg 97%
21:00 +16°C° 0.7 mm 1 mps 625 mmHg 98%
22:00 +15°C° 0.7 mm 0 mps 626 mmHg 98%
23:00 +15°C° 0.5 mm 0 mps 625 mmHg 98%

10 August, Tuesday

Time Temperature Precipitation Wind Pressure Humidity
00:00 +15°C° 0.5 mm 0 mps 625 mmHg 98%
01:00 +15°C° 0.5 mm 0 mps 625 mmHg 98%
02:00 +15°C° 0.3 mm 0 mps 625 mmHg 98%
03:00 +15°C° 0.3 mm 0 mps 625 mmHg 98%
04:00 +15°C° 0.3 mm 0 mps 625 mmHg 98%
05:00 +15°C° 0.2 mm 0 mps 625 mmHg 97%
06:00 +15°C° 0.2 mm 0 mps 625 mmHg 97%
07:00 +15°C° 0.2 mm 0 mps 626 mmHg 96%
08:00 +17°C° 0.2 mm 0 mps 626 mmHg 89%
09:00 +19°C° 0.2 mm 0 mps 627 mmHg 81%
10:00 +20°C° 0.2 mm 0 mps 628 mmHg 74%
11:00 +23°C° 0.8 mm 1 mps 627 mmHg 72%
12:00 +24°C° 0.8 mm 1 mps 627 mmHg 70%
13:00 +24°C° 0.8 mm 1 mps 626 mmHg 67%
14:00 +24°C° 1.1 mm 1 mps 626 mmHg 71%
15:00 +23°C° 1.1 mm 1 mps 625 mmHg 74%
16:00 +23°C° 1.1 mm 1 mps 625 mmHg 77%
17:00 +21°C° 0.9 mm 1 mps 625 mmHg 83%
18:00 +20°C° 0.9 mm 1 mps 625 mmHg 90%
19:00 +18°C° 0.9 mm 1 mps 625 mmHg 96%
20:00 +18°C° 1.3 mm 1 mps 625 mmHg 97%
21:00 +18°C° 1.3 mm 1 mps 626 mmHg 97%
22:00 +16°C° 1.3 mm 0 mps 626 mmHg 98%
23:00 +16°C° 0.7 mm 0 mps 626 mmHg 98%

11 August, Wednesday

Time Temperature Precipitation Wind Pressure Humidity
00:00 +15°C° 0.7 mm 0 mps 625 mmHg 98%
01:00 +15°C° 0.7 mm 0 mps 625 mmHg 98%
02:00 +15°C° 0.3 mm 0 mps 625 mmHg 98%
03:00 +15°C° 0.3 mm 0 mps 625 mmHg 98%
04:00 +15°C° 0.3 mm 0 mps 624 mmHg 98%
05:00 +15°C° 0.1 mm 0 mps 625 mmHg 97%
06:00 +15°C° 0.1 mm 0 mps 625 mmHg 96%
07:00 +15°C° 0.1 mm 0 mps 625 mmHg 96%
08:00 +17°C° 0.2 mm 0 mps 626 mmHg 88%
09:00 +19°C° 0.2 mm 0 mps 627 mmHg 80%
10:00 +21°C° 0.2 mm 0 mps 627 mmHg 73%
11:00 +23°C° 0.3 mm 1 mps 627 mmHg 69%
12:00 +24°C° 0.3 mm 1 mps 627 mmHg 66%
13:00 +25°C° 0.3 mm 1 mps 626 mmHg 62%
14:00 +24°C° 0.7 mm 1 mps 626 mmHg 68%
15:00 +24°C° 0.7 mm 1 mps 625 mmHg 74%
16:00 +23°C° 0.7 mm 1 mps 624 mmHg 80%
17:00 +21°C° 0.7 mm 1 mps 624 mmHg 85%
18:00 +20°C° 0.7 mm 1 mps 624 mmHg 91%
19:00 +18°C° 0.7 mm 1 mps 625 mmHg 96%
20:00 +18°C° 1 mm 1 mps 625 mmHg 97%
21:00 +18°C° 1 mm 1 mps 625 mmHg 98%
22:00 +18°C° 1 mm 1 mps 626 mmHg 98%
23:00 +15°C° 0.6 mm 0 mps 625 mmHg 98%
Show more